FW6899 Weather Reports


Display with metric or nautical units.
time (UTC)temp
F
wind
direction
speed
MPH
gust
MPH
rain 1hr
in
rain 24hr
in
rain mn
in
humidity
%
barometer
mb
20260507001015 72 0 0.0 1.0 0.00 0.00 0.00 62 1018.4
20260507000522 72 0 0.0 2.0 0.00 0.00 0.00 62 1018.5
20260507000035 72 121 0.0 2.0 0.00 0.00 0.00 62 1018.5
20260506235514 72 0 0.0 1.0 0.00 0.00 0.00 62 1018.6
20260506235020 72 0 0.0 3.0 0.00 0.00 0.00 62 1018.5
20260506234534 73 0 0.0 3.0 0.00 0.00 0.00 62 1018.5
20260506234013 73 200 0.0 1.0 0.00 0.00 0.00 61 1018.4
20260506233516 73 0 0.0 1.0 0.00 0.00 0.00 61 1018.4
20260506233032 73 0 0.0 1.0 0.00 0.00 0.00 62 1018.6
20260506232520 73 243 0.0 3.0 0.00 0.00 0.00 61 1018.6
20260506232015 73 224 0.0 3.0 0.00 0.00 0.00 61 1018.6
20260506231534 74 328 0.0 2.0 0.00 0.00 0.00 61 1018.6
20260506231014 74 280 0.0 2.0 0.00 0.00 0.00 60 1018.6
20260506230514 74 0 0.0 2.0 0.00 0.00 0.00 60 1018.6
20260506230034 74 227 0.0 2.0 0.00 0.00 0.00 60 1018.6
20260506225518 74 245 0.0 2.0 0.00 0.00 0.00 58 1018.7
20260506225015 74 0 0.0 2.0 0.00 0.00 0.00 59 1018.8
20260506224532 74 73 0.0 3.0 0.00 0.00 0.00 58 1018.9
20260506224016 74 223 0.0 3.0 0.00 0.00 0.00 58 1018.9
20260506223515 74 89 0.0 3.0 0.00 0.00 0.00 58 1018.9
20260506223032 74 213 0.0 4.0 0.00 0.00 0.00 57 1018.9
20260506222514 74 0 0.0 4.0 0.00 0.00 0.00 58 1018.9
20260506222016 74 62 0.0 4.0 0.00 0.00 0.00 56 1019.1
20260506221533 74 0 0.0 7.0 0.00 0.00 0.00 58 1019.1
20260506221013 74 63 1.0 7.0 0.00 0.00 0.00 57 1019.1
20260506220514 74 166 0.0 5.0 0.00 0.00 0.00 57 1019.3
20260506220036 75 54 1.0 4.0 0.00 0.00 0.00 55 1019.3
20260506215515 75 155 0.0 4.0 0.00 0.00 0.00 56 1019.3
20260506215014 75 66 1.0 3.0 0.00 0.00 0.00 55 1019.4
20260506214532 75 94 0.0 6.0 0.00 0.00 0.00 56 1019.4
20260506214015 74 0 1.0 7.0 0.00 0.00 0.00 57 1019.4
20260506213514 74 0 0.0 7.0 0.00 0.00 0.00 57 1019.5
20260506213032 74 50 2.0 7.0 0.00 0.00 0.00 56 1019.5
20260506212515 75 61 0.0 4.0 0.00 0.00 0.00 55 1019.6
20260506212020 75 55 0.0 4.0 0.00 0.00 0.00 54 1019.6
20260506211530 75 62 0.0 4.0 0.00 0.00 0.00 54 1019.7
20260506211015 74 126 1.0 5.0 0.00 0.00 0.00 55 1019.7
20260506210512 74 76 1.0 5.0 0.00 0.00 0.00 55 1019.8
20260506210037 74 0 0.0 4.0 0.00 0.00 0.00 56 1019.7
20260506205514 74 0 0.0 4.0 0.00 0.00 0.00 54 1019.9
20260506205016 75 50 0.0 4.0 0.00 0.00 0.00 53 1019.9
20260506204547 75 84 0.0 2.0 0.00 0.00 0.00 52 1020.0
20260506204017 75 0 0.0 1.0 0.00 0.00 0.00 53 1019.9
20260506203515 75 0 0.0 3.0 0.00 0.00 0.00 53 1020.1
20260506203033 75 0 0.0 4.0 0.00 0.00 0.00 53 1020.0
20260506202514 74 0 0.0 4.0 0.00 0.00 0.00 54 1020.1
20260506202014 74 71 1.0 4.0 0.00 0.00 0.00 54 1020.1
20260506201534 75 0 0.0 5.0 0.00 0.00 0.00 53 1020.2
20260506201014 76 65 0.0 5.0 0.00 0.00 0.00 54 1020.3
20260506200513 76 0 0.0 2.0 0.00 0.00 0.00 54 1020.4
20260506200035 75 65 0.0 2.0 0.00 0.00 0.00 54 1020.3
20260506195514 75 105 0.0 3.0 0.00 0.00 0.00 55 1020.4
20260506195019 74 112 0.0 3.0 0.00 0.00 0.00 56 1020.5
20260506194534 75 70 0.0 3.0 0.00 0.00 0.00 55 1020.4
20260506194014 74 0 0.0 3.0 0.00 0.00 0.00 57 1020.6
20260506193512 73 41 0.0 4.0 0.00 0.00 0.00 57 1020.7
20260506193032 74 71 1.0 4.0 0.00 0.00 0.00 56 1020.6
20260506192513 73 0 0.0 3.0 0.00 0.00 0.00 57 1020.7
20260506192014 72 0 0.0 4.0 0.00 0.00 0.00 59 1020.8
20260506191534 72 0 0.0 4.0 0.00 0.00 0.00 60 1020.8
20260506191015 72 61 0.0 4.0 0.00 0.00 0.00 60 1020.9
20260506190516 70 0 0.0 5.0 0.00 0.00 0.00 62 1020.9
20260506190033 69 62 1.0 5.0 0.00 0.00 0.00 64 1020.9
20260506185514 70 55 1.0 4.0 0.00 0.00 0.00 63 1021.0
20260506185014 70 0 1.0 6.0 0.00 0.00 0.00 64 1021.0
20260506184532 69 0 0.0 6.0 0.00 0.00 0.00 66 1021.0
20260506184014 68 49 0.0 5.0 0.00 0.00 0.00 66 1021.0
20260506183514 69 57 0.0 6.0 0.00 0.00 0.00 65 1021.0
20260506183030 68 0 0.0 6.0 0.00 0.00 0.00 66 1021.1
20260506182515 69 74 1.0 4.0 0.00 0.00 0.00 64 1021.1
20260506182016 69 59 0.0 3.0 0.00 0.00 0.00 63 1021.1
20260506181536 69 50 0.0 5.0 0.00 0.00 0.00 64 1021.2
20260506181014 67 46 1.0 5.0 0.00 0.00 0.00 67 1021.2
20260506180519 67 42 1.0 4.0 0.00 0.00 0.00 65 1021.1
20260506180032 68 49 2.0 4.0 0.00 0.00 0.00 63 1021.1
20260506175515 68 0 0.0 2.0 0.00 0.00 0.00 65 1021.1
20260506175014 68 0 0.0 5.0 0.00 0.00 0.00 65 1021.1
20260506174533 67 0 0.0 5.0 0.00 0.00 0.00 65 1021.1
20260506174017 67 0 0.0 1.0 0.00 0.00 0.00 67 1021.2
20260506173513 65 0 0.0 1.0 0.00 0.00 0.00 68 1021.3
20260506173032 66 59 0.0 3.0 0.00 0.00 0.00 68 1021.2
20260506172514 66 69 0.0 3.0 0.00 0.00 0.00 68 1021.2
20260506172014 65 0 0.0 1.0 0.00 0.00 0.00 70 1021.2
20260506171540 65 216 0.0 1.0 0.00 0.00 0.00 70 1021.3
20260506171015 64 0 0.0 1.0 0.00 0.00 0.00 71 1021.3
20260506170514 63 219 0.0 1.0 0.00 0.00 0.00 71 1021.4
20260506170035 63 0 0.0 1.0 0.00 0.00 0.00 71 1021.4
20260506165514 63 0 0.0 1.0 0.00 0.00 0.00 70 1021.3
20260506165014 63 0 0.0 1.0 0.00 0.00 0.00 72 1021.4
20260506164539 62 0 0.0 1.0 0.00 0.00 0.00 73 1021.3
20260506164014 62 0 0.0 0.0 0.00 0.00 0.00 73 1021.4
20260506163516 61 0 0.0 1.0 0.00 0.00 0.00 75 1021.3
20260506163033 60 0 0.0 2.0 0.00 0.00 0.00 76 1021.3
20260506162513 60 0 0.0 2.0 0.00 0.00 0.00 76 1021.4
20260506162015 60 53 0.0 2.0 0.00 0.00 0.00 75 1021.4
20260506161539 60 0 0.0 0.0 0.00 0.00 0.00 75 1021.4
20260506161016 60 0 0.0 0.0 0.00 0.00 0.00 76 1021.4
20260506160516 60 0 0.0 0.0 0.00 0.00 0.00 76 1021.4
20260506160042 60 0 0.0 0.0 0.00 0.00 0.00 76 1021.4
20260506155513 60 0 0.0 0.0 0.00 0.00 0.00 77 1021.4
20260506155014 60 0 0.0 0.0 0.00 0.00 0.00 76 1021.3
20260506154533 60 0 0.0 0.0 0.00 0.00 0.00 77 1021.4
20260506154016 59 0 0.0 0.0 0.00 0.00 0.00 78 1021.3
20260506153517 59 0 0.0 0.0 0.00 0.00 0.00 79 1021.3
20260506153034 59 0 0.0 0.0 0.00 0.00 0.00 79 1021.3
20260506152517 58 0 0.0 0.0 0.00 0.00 0.00 79 1021.3
20260506152017 58 0 0.0 0.0 0.00 0.00 0.00 81 1021.2
20260506151536 58 0 0.0 0.0 0.00 0.00 0.00 81 1021.3
20260506151019 58 0 0.0 0.0 0.00 0.00 0.00 81 1021.3
20260506150519 58 0 0.0 0.0 0.00 0.00 0.00 82 1021.4
20260506150034 57 0 0.0 0.0 0.00 0.00 0.00 83 1021.3
20260506145516 57 0 0.0 0.0 0.00 0.00 0.00 83 1021.3
20260506145019 57 0 0.0 0.0 0.00 0.00 0.00 83 1021.3
20260506144534 57 0 0.0 0.0 0.00 0.00 0.00 83 1021.1
20260506144025 57 0 0.0 0.0 0.00 0.00 0.00 84 1021.1
20260506143519 56 0 0.0 0.0 0.00 0.00 0.00 84 1021.1
20260506143043 56 0 0.0 0.0 0.00 0.00 0.00 85 1021.2
20260506142514 56 0 0.0 0.0 0.00 0.00 0.00 85 1021.2
20260506142014 56 0 0.0 0.0 0.00 0.00 0.00 85 1021.1
20260506141532 56 0 0.0 0.0 0.00 0.00 0.00 85 1021.0
20260506141014 55 0 0.0 1.0 0.00 0.00 0.00 85 1021.0
20260506140516 55 0 0.0 1.0 0.00 0.00 0.00 86 1020.9
20260506140036 55 0 0.0 0.0 0.00 0.00 0.00 86 1020.8
20260506135515 55 0 0.0 0.0 0.00 0.00 0.00 86 1020.8
20260506135020 55 0 0.0 0.0 0.00 0.00 0.00 87 1020.8
20260506134534 55 0 0.0 0.0 0.00 0.00 0.00 87 1020.7
20260506134017 55 0 0.0 0.0 0.00 0.00 0.00 87 1020.6
20260506133515 54 0 0.0 0.0 0.00 0.00 0.00 88 1020.6
20260506133034 54 0 0.0 0.0 0.00 0.00 0.00 88 1020.6
20260506132520 54 0 0.0 0.0 0.00 0.00 0.00 88 1020.5
20260506132016 54 0 0.0 0.0 0.00 0.00 0.00 88 1020.5
20260506131533 54 0 0.0 0.0 0.00 0.00 0.00 88 1020.5
20260506131017 54 0 0.0 0.0 0.00 0.00 0.00 89 1020.5
20260506130519 54 0 0.0 0.0 0.00 0.00 0.00 89 1020.5
20260506130033 53 0 0.0 0.0 0.00 0.00 0.00 89 1020.6
20260506125516 53 0 0.0 0.0 0.00 0.00 0.00 90 1020.4
20260506125018 53 0 0.0 0.0 0.00 0.00 0.00 90 1020.4
20260506124531 53 0 0.0 0.0 0.00 0.00 0.00 91 1020.3
20260506124015 52 0 0.0 0.0 0.00 0.00 0.00 91 1020.4
20260506123511 52 0 0.0 0.0 0.00 0.00 0.00 91 1020.3
20260506123030 52 0 0.0 0.0 0.00 0.00 0.00 91 1020.4
20260506122514 52 0 0.0 0.0 0.00 0.00 0.00 91 1020.3
20260506122014 52 0 0.0 0.0 0.00 0.00 0.00 91 1020.3
20260506121530 52 0 0.0 0.0 0.00 0.00 0.00 91 1020.3
20260506121015 52 0 0.0 0.0 0.00 0.00 0.00 91 1020.3
20260506120518 52 0 0.0 0.0 0.00 0.00 0.00 91 1020.3
20260506120033 52 0 0.0 0.0 0.00 0.00 0.00 90 1020.1
20260506115515 52 0 0.0 0.0 0.00 0.01 0.00 90 1020.2
20260506115012 52 0 0.0 0.0 0.00 0.01 0.00 90 1020.1
20260506114541 52 0 0.0 0.0 0.00 0.01 0.00 90 1020.1
20260506114014 52 0 0.0 0.0 0.00 0.01 0.00 90 1020.0
20260506113515 52 0 0.0 0.0 0.00 0.01 0.00 90 1019.9
20260506113032 52 0 0.0 0.0 0.00 0.01 0.00 89 1019.9
20260506112512 52 0 0.0 0.0 0.00 0.01 0.00 89 1019.9
20260506112015 52 0 0.0 0.0 0.00 0.01 0.00 89 1019.8
20260506111534 53 0 0.0 0.0 0.00 0.01 0.00 89 1020.0
20260506111012 53 0 0.0 0.0 0.00 0.01 0.00 89 1019.9
20260506110520 53 0 0.0 0.0 0.00 0.01 0.00 89 1019.8
20260506110035 53 0 0.0 0.0 0.00 0.01 0.00 88 1019.8
20260506105515 53 0 0.0 0.0 0.00 0.02 0.00 88 1019.8
20260506105013 53 0 0.0 0.0 0.00 0.02 0.00 88 1019.8
20260506104533 53 0 0.0 0.0 0.00 0.02 0.00 88 1019.8
20260506104013 54 0 0.0 0.0 0.00 0.02 0.00 88 1019.7
20260506103514 54 0 0.0 0.0 0.00 0.02 0.00 88 1019.7
20260506103030 54 0 0.0 0.0 0.00 0.02 0.00 87 1019.8
20260506102514 54 0 0.0 0.0 0.00 0.02 0.00 87 1019.8
20260506102013 55 0 0.0 0.0 0.00 0.02 0.00 87 1019.6
20260506101547 55 0 0.0 0.0 0.00 0.02 0.00 86 1019.6
20260506101015 55 0 0.0 0.0 0.00 0.02 0.00 86 1019.7
20260506100515 55 0 0.0 0.0 0.00 0.02 0.00 85 1019.7
20260506100032 55 0 0.0 0.0 0.00 0.02 0.00 85 1019.7
20260506095512 55 0 0.0 0.0 0.00 0.02 0.00 85 1019.7
20260506095013 56 0 0.0 0.0 0.00 0.02 0.00 85 1019.6
20260506094540 56 0 0.0 0.0 0.00 0.02 0.00 85 1019.7
20260506094013 56 0 0.0 0.0 0.00 0.02 0.00 84 1019.7
20260506093515 56 0 0.0 0.0 0.00 0.02 0.00 84 1019.7
20260506093032 56 0 0.0 0.0 0.00 0.02 0.00 84 1019.7
20260506092513 57 0 0.0 0.0 0.00 0.02 0.00 84 1019.7
20260506092019 57 0 0.0 0.0 0.00 0.02 0.00 84 1019.6
20260506091530 57 0 0.0 0.0 0.00 0.02 0.00 83 1019.6
20260506091014 57 0 0.0 0.0 0.00 0.02 0.00 83 1019.6
20260506090515 57 0 0.0 0.0 0.00 0.02 0.00 83 1019.6
20260506090036 57 0 0.0 0.0 0.00 0.02 0.00 83 1019.7
20260506085513 57 0 0.0 0.0 0.00 0.02 0.00 83 1019.6
20260506085014 57 0 0.0 0.0 0.00 0.02 0.00 83 1019.6
20260506084533 57 0 0.0 1.0 0.00 0.02 0.00 83 1019.6
20260506084013 57 0 0.0 1.0 0.00 0.02 0.00 83 1019.6
20260506083512 57 76 0.0 0.0 0.00 0.02 0.00 83 1019.6
20260506083032 57 0 0.0 0.0 0.00 0.02 0.00 83 1019.7
20260506082512 57 0 0.0 1.0 0.00 0.02 0.00 83 1019.6
20260506082018 57 0 0.0 1.0 0.00 0.02 0.00 83 1019.7
20260506081531 57 0 0.0 1.0 0.00 0.02 0.00 83 1019.7
20260506081018 57 0 0.0 0.0 0.00 0.02 0.00 83 1019.7
20260506080516 57 0 0.0 0.0 0.00 0.02 0.00 83 1019.6
20260506073513 57 0 0.0 0.0 0.00 0.02 0.00 82 1019.4
20260506073030 57 0 0.0 0.0 0.00 0.02 0.00 82 1019.4
20260506072517 57 0 0.0 0.0 0.00 0.02 0.00 82 1019.4
20260506072012 57 0 0.0 0.0 0.00 0.02 0.00 82 1019.4
20260506071530 57 0 0.0 0.0 0.00 0.02 0.00 81 1019.4
20260506071013 57 0 0.0 0.0 0.00 0.02 0.00 81 1019.4
20260506070513 57 0 0.0 1.0 0.00 0.02 0.00 80 1019.2
20260506062017 58 0 0.0 0.0 0.00 0.02 0.02 79 1019.1
20260506061535 58 0 0.0 0.0 0.00 0.02 0.02 78 1019.0
20260506061019 57 0 0.0 0.0 0.00 0.02 0.02 78 1019.0
20260506060514 58 0 0.0 0.0 0.00 0.02 0.02 78 1018.9
20260506051017 58 0 0.0 1.0 0.00 0.02 0.02 78 1018.6
20260506050521 58 0 0.0 0.0 0.00 0.02 0.02 78 1018.4
20260506045014 58 0 0.0 3.0 0.00 0.02 0.02 77 1018.2
20260506044535 58 221 0.0 3.0 0.00 0.02 0.02 77 1018.1
20260506044021 58 0 0.0 1.0 0.00 0.02 0.02 78 1018.2
20260506043513 58 0 0.0 3.0 0.00 0.02 0.02 78 1018.1
20260506043034 58 0 0.0 3.0 0.00 0.02 0.02 78 1018.1
20260506042515 58 225 0.0 2.0 0.00 0.02 0.02 78 1018.0
20260506042022 58 201 0.0 3.0 0.00 0.02 0.02 78 1017.9
20260506041542 58 0 0.0 4.0 0.00 0.02 0.02 78 1017.9
20260506041017 58 222 0.0 4.0 0.00 0.02 0.02 77 1017.9
20260506040522 58 0 0.0 4.0 0.00 0.02 0.02 77 1017.7
20260506040031 58 0 0.0 1.0 0.00 0.02 0.02 77 1017.6
20260506035513 58 0 0.0 5.0 0.00 0.02 0.02 77 1017.7
20260506035016 58 219 0.0 5.0 0.00 0.02 0.02 78 1017.6
20260506034531 58 201 1.0 5.0 0.00 0.02 0.02 77 1017.5
20260506034014 58 225 0.0 2.0 0.00 0.02 0.02 77 1017.5
20260506033515 58 0 0.0 2.0 0.00 0.02 0.02 77 1017.4
20260506033035 58 69 0.0 2.0 0.00 0.02 0.02 77 1017.2
20260506032518 58 0 0.0 2.0 0.00 0.02 0.02 77 1017.2
20260506032014 59 125 0.0 3.0 0.00 0.02 0.02 77 1017.3
20260506031532 59 0 0.0 3.0 0.00 0.02 0.02 76 1017.1
20260506031103 59 48 0.0 3.0 0.00 0.02 0.02 75 1017.1
20260506030517 59 131 0.0 3.0 0.00 0.02 0.02 76 1017.1
20260506030034 59 0 0.0 2.0 0.00 0.02 0.02 77 1017.0
20260506025515 59 136 0.0 2.0 0.00 0.02 0.02 76 1017.0
20260506025015 59 198 0.0 2.0 0.00 0.02 0.02 76 1016.9
20260506024535 59 0 0.0 2.0 0.00 0.02 0.02 76 1016.9
20260506024014 60 303 0.0 5.0 0.00 0.02 0.02 76 1016.8
20260506023516 60 0 0.0 6.0 0.00 0.02 0.02 76 1016.7
20260506023033 60 0 0.0 6.0 0.00 0.02 0.02 75 1016.5
20260506022517 60 0 0.0 4.0 0.00 0.02 0.02 75 1016.5
20260506022014 61 224 0.0 3.0 0.00 0.02 0.02 74 1016.5
20260506021530 61 0 0.0 2.0 0.00 0.02 0.02 74 1016.5
20260506021016 61 0 0.0 2.0 0.00 0.02 0.02 73 1016.5
20260506020515 61 202 0.0 2.0 0.00 0.02 0.02 72 1016.6
20260506020032 61 0 0.0 2.0 0.00 0.02 0.02 72 1016.5
20260506015515 61 0 0.0 3.0 0.00 0.02 0.02 72 1016.5
20260506015017 61 0 0.0 3.0 0.00 0.02 0.02 72 1016.5
20260506014544 61 0 0.0 3.0 0.00 0.02 0.02 72 1016.5
20260506014013 62 0 0.0 3.0 0.00 0.02 0.02 71 1016.5
20260506013513 62 0 0.0 1.0 0.00 0.02 0.02 71 1016.6
20260506013032 62 0 0.0 1.0 0.00 0.02 0.02 72 1016.5
20260506012513 62 211 0.0 3.0 0.00 0.02 0.02 71 1016.6
20260506012014 62 0 0.0 3.0 0.00 0.02 0.02 71 1016.5
20260506011534 62 0 0.0 3.0 0.00 0.02 0.02 71 1016.4
20260506011015 62 173 0.0 4.0 0.00 0.02 0.02 71 1016.4
20260506010513 62 178 0.0 4.0 0.00 0.02 0.02 71 1016.5
20260506010031 62 226 0.0 3.0 0.00 0.02 0.02 70 1016.4
20260506005513 62 53 0.0 3.0 0.00 0.02 0.02 71 1016.4
20260506005017 62 89 0.0 2.0 0.00 0.02 0.02 70 1016.4
20260506004540 62 125 0.0 6.0 0.00 0.02 0.02 71 1016.4
20260506004016 62 0 0.0 7.0 0.00 0.02 0.02 70 1016.4
20260506003517 62 201 2.0 7.0 0.00 0.02 0.02 70 1016.3
20260506003034 62 46 1.0 6.0 0.00 0.02 0.02 69 1016.3
20260506002513 63 311 0.0 3.0 0.00 0.02 0.02 70 1016.2
20260506002015 62 0 0.0 7.0 0.00 0.02 0.02 70 1016.2
20260506001534 62 0 0.0 7.0 0.00 0.02 0.02 71 1016.1